Regional Weather Roundup
Issued by NWS Sioux Falls, SD

Home | Current Version | Previous Version | Text Only | Print | Product List | Glossary On
Versions: 1 2 3 4 5 6 7 8 9 10 11 12 13 14 15 16 17 18 19 20 21 22 23 24 25 26 27 28 29 30 31 32 33 34 35 36 37 38 39 40 41 42 43 44 45 46 47 48 49 50
000
ASUS43 KFSD 262202
RWRFSD

WEATHER ROUNDUP FOR SE SOUTH DAKOTA/SW MINNESOTA/NW IOWA
NATIONAL WEATHER SERVICE SIOUX FALLS SD
500 PM CDT SUN APR 26 2015

NOTE: "FAIR" INDICATES FEW OR NO CLOUDS BELOW 12,000 FEET WITH NO
SIGNIFICANT WEATHER AND OR OBSTRUCTIONS TO VISIBILITY.


SDZ038>040-050-052>070-262300-
SOUTHEAST SOUTH DAKOTA

CITY           SKY/WX    TMP DP  RH WIND       PRES   REMARKS
BROOKINGS      SUNNY     63  32  31 E6        30.07S
CHAMBERLAIN    NOT AVBL
HURON          SUNNY     67  31  26 E5        30.04F
MADISON        FAIR      63  32  31 NE10G18   30.05S
MITCHELL       SUNNY     65  34  31 E5        30.05S
SIOUX FALLS    MOSUNNY   66  31  27 NE10G16   30.03S
WINNER         FAIR      64  36  35 E12G18    30.02F
YANKTON        SUNNY     66  30  26 E10G17    30.01S
$$

MNZ071-072-080-081-089-090-097-098-262300-
SOUTHWEST MINNESOTA

CITY           SKY/WX    TMP DP  RH WIND       PRES   REMARKS
FAIRMONT       SUNNY     64  28  25 NE12      30.04F
JACKSON        SUNNY     64  25  22 NE6G18    30.05S
LUVERNE        SUNNY     66  30  26 NE6       30.04S
MARSHALL       SUNNY     64  25  22 NE12      30.06S
MONTEVIDEO     SUNNY     66  25  20 NE7       30.09S
REDWOOD FALLS  SUNNY     65  19  17 N8        30.06F
TRACY          SUNNY     66  27  22 NE8       30.06S
WORTHINGTON    SUNNY     63  28  27 E6G17     30.04F
$$

IAZ001>003-012>014-020>022-031-032-NEZ013-014-SDZ071-262300-
NORTHWEST IOWA

CITY           SKY/WX    TMP DP  RH WIND       PRES   REMARKS
DENISON        SUNNY     63  36  36 E10G18    30.00F
ESTHERVILLE    SUNNY     63  33  32 E8        30.03F
SIOUX CITY     SUNNY     67  32  27 SE12G21   30.01F
SPENCER        SUNNY     67  31  26 N15       30.03F
$$

ABBREVIATIONS USED IN REMARKS
   TC - TEMPERATURE IN CELSIUS
  WCI - WIND CHILL INDEX
   HX - HEAT INDEX
  VSB - VISIBILITY




USA.gov is the U.S. government's official web portal to all federal, state and local government web resources and services.